Time,TemperatureF,DewpointF,PressureIn,WindDirection,WindDirectionDegrees,WindSpeedMPH,WindSpeedGustMPH,Humidity,HourlyPrecipIn,Conditions,Clouds,dailyrainin,SolarRadiationWatts/m^2,SoftwareType,DateUTC
2013-03-27 00:00:00,38.0,27.3,29.70,WNW,300,5.0,6.0,65,0.00,RA,RA,0.00,0.0,WeatherDisplay:10.37,2013-03-27 04:00:00,
2013-03-27 00:05:00,38.2,27.1,29.70,WNW,299,5.0,13.0,64,0.00,RA,RA,0.00,0.0,WeatherDisplay:10.37,2013-03-27 04:05:00,
2013-03-27 00:15:00,38.2,27.1,29.70,NW,310,5.0,6.0,64,0.00,CLR,CLR,0.00,0.0,WeatherDisplay:10.37,2013-03-27 04:15:00,
2013-03-27 00:20:00,38.2,27.1,29.70,WNW,300,3.0,9.0,64,0.00,CLR,CLR,0.00,0.0,WeatherDisplay:10.37,2013-03-27 04:20:00,
2013-03-27 00:25:00,38.4,26.9,29.70,NW,308,5.0,10.0,63,0.00,CLR,CLR,0.00,0.0,WeatherDisplay:10.37,2013-03-27 04:25:00,
2013-03-27 00:30:00,38.4,26.9,29.70,NW,315,6.0,12.0,63,0.00,CLR,CLR,0.00,0.0,WeatherDisplay:10.37,2013-03-27 04:30:00,
2013-03-27 00:35:00,38.5,26.9,29.70,NW,314,7.0,15.0,63,0.00,CLR,CLR,0.00,0.0,WeatherDisplay:10.37,2013-03-27 04:35:00,
2013-03-27 00:40:00,38.7,26.8,29.70,NW,321,7.0,10.0,62,0.00,CLR,CLR,0.00,0.0,WeatherDisplay:10.37,2013-03-27 04:40:00,
2013-03-27 00:45:00,38.7,26.8,29.71,NW,321,5.0,10.0,62,0.00,CLR,CLR,0.00,0.0,WeatherDisplay:10.37,2013-03-27 04:45:00,
2013-03-27 00:50:00,38.7,26.8,29.71,NW,321,9.0,14.0,62,0.00,CLR,CLR,0.00,0.0,WeatherDisplay:10.37,2013-03-27 04:50:00,
2013-03-27 00:55:00,38.8,26.9,29.71,NW,325,5.0,12.0,62,0.00,CLR,CLR,0.00,0.0,WeatherDisplay:10.37,2013-03-27 04:55:00,
2013-03-27 01:00:00,38.8,27.3,29.71,NW,326,3.0,12.0,63,0.00,CLR,CLR,0.00,0.0,WeatherDisplay:10.37,2013-03-27 05:00:00,
2013-03-27 01:05:00,38.6,27.1,29.71,NNW,327,6.0,10.0,63,0.00,CLR,CLR,0.00,0.0,WeatherDisplay:10.37,2013-03-27 05:05:00,
2013-03-27 01:10:00,38.5,27.4,29.71,NW,325,6.0,10.0,64,0.00,CLR,CLR,0.00,0.0,WeatherDisplay:10.37,2013-03-27 05:10:00,
2013-03-27 01:15:00,38.4,27.6,29.71,NNW,328,5.0,8.0,65,0.00,CLR,CLR,0.00,0.0,WeatherDisplay:10.37,2013-03-27 05:15:00,
2013-03-27 01:20:00,38.2,27.9,29.71,NNW,337,5.0,10.0,66,0.00,CLR,CLR,0.00,0.0,WeatherDisplay:10.37,2013-03-27 05:20:00,
2013-03-27 01:25:00,38.0,28.0,29.71,NNW,334,3.0,12.0,67,0.00,CLR,CLR,0.00,0.0,WeatherDisplay:10.37,2013-03-27 05:25:00,
2013-03-27 01:30:00,37.9,27.9,29.71,NNW,329,5.0,10.0,67,0.00,CLR,CLR,0.00,0.0,WeatherDisplay:10.37,2013-03-27 05:30:00,
2013-03-27 01:40:00,37.7,28.1,29.71,NNW,333,5.0,12.0,68,0.00,CLR,CLR,0.00,0.0,WeatherDisplay:10.37,2013-03-27 05:40:00,
2013-03-27 01:45:00,37.6,28.0,29.71,NNW,329,5.0,7.0,68,0.00,CLR,CLR,0.00,0.0,WeatherDisplay:10.37,2013-03-27 05:45:00,
2013-03-27 01:50:00,37.5,27.9,29.71,NNW,336,5.0,10.0,68,0.00,CLR,CLR,0.00,0.0,WeatherDisplay:10.37,2013-03-27 05:50:00,
2013-03-27 01:55:00,37.5,27.9,29.71,NNW,337,5.0,9.0,68,0.00,CLR,CLR,0.00,0.0,WeatherDisplay:10.37,2013-03-27 05:55:00,
2013-03-27 02:00:00,37.4,27.8,29.71,NNW,334,3.0,6.0,68,0.00,CLR,CLR,0.00,0.0,WeatherDisplay:10.37,2013-03-27 06:00:00,
2013-03-27 02:05:00,37.3,27.7,29.71,NNW,335,3.0,8.0,68,0.00,CLR,CLR,0.00,0.0,WeatherDisplay:10.37,2013-03-27 06:05:00,
2013-03-27 02:10:00,37.2,28.0,29.71,NNW,341,3.0,6.0,69,0.00,CLR,CLR,0.00,0.0,WeatherDisplay:10.37,2013-03-27 06:10:00,
2013-03-27 02:15:00,37.1,27.9,29.71,North,349,5.0,9.0,69,0.00,CLR,CLR,0.00,0.0,WeatherDisplay:10.37,2013-03-27 06:15:00,
2013-03-27 02:20:00,36.9,28.1,29.72,NNW,348,3.0,6.0,70,0.00,CLR,CLR,0.00,0.0,WeatherDisplay:10.37,2013-03-27 06:20:00,
2013-03-27 02:25:00,36.8,27.9,29.72,NNW,344,3.0,6.0,70,0.00,CLR,CLR,0.00,0.0,WeatherDisplay:10.37,2013-03-27 06:25:00,
2013-03-27 02:30:00,36.6,27.7,29.71,NNW,342,2.0,6.0,70,0.00,CLR,CLR,0.00,0.0,WeatherDisplay:10.37,2013-03-27 06:30:00,
2013-03-27 02:35:00,36.5,28.0,29.71,NNW,340,3.0,7.0,71,0.00,CLR,CLR,0.00,0.0,WeatherDisplay:10.37,2013-03-27 06:35:00,
2013-03-27 02:40:00,36.5,28.0,29.71,NNW,344,3.0,7.0,71,0.00,CLR,CLR,0.00,0.0,WeatherDisplay:10.37,2013-03-27 06:40:00,
2013-03-27 02:45:00,36.5,28.0,29.71,NNW,343,3.0,8.0,71,0.00,CLR,CLR,0.00,0.0,WeatherDisplay:10.37,2013-03-27 06:45:00,
2013-03-27 02:50:00,36.5,28.0,29.71,NNW,341,5.0,7.0,71,0.00,CLR,CLR,0.00,0.0,WeatherDisplay:10.37,2013-03-27 06:50:00,
2013-03-27 02:55:00,36.4,27.9,29.71,NNW,347,3.0,6.0,71,0.00,CLR,CLR,0.00,0.0,WeatherDisplay:10.37,2013-03-27 06:55:00,
2013-03-27 03:00:00,36.3,28.1,29.71,North,350,3.0,7.0,72,0.00,CLR,CLR,0.00,0.0,WeatherDisplay:10.37,2013-03-27 07:00:00,
2013-03-27 03:05:00,36.2,28.1,29.71,North,354,3.0,6.0,72,0.00,CLR,CLR,0.00,0.0,WeatherDisplay:10.37,2013-03-27 07:05:00,
2013-03-27 03:10:00,36.2,28.0,29.71,North,353,3.0,6.0,72,0.00,CLR,CLR,0.00,0.0,WeatherDisplay:10.37,2013-03-27 07:10:00,
2013-03-27 03:15:00,36.1,27.9,29.70,North,350,3.0,7.0,72,0.00,CLR,CLR,0.00,0.0,WeatherDisplay:10.37,2013-03-27 07:15:00,
2013-03-27 03:25:00,36.0,27.9,29.70,NNW,342,3.0,6.0,72,0.00,CLR,CLR,0.00,0.0,WeatherDisplay:10.37,2013-03-27 07:25:00,
2013-03-27 03:30:00,36.0,27.8,29.70,NNW,347,2.0,5.0,72,0.00,CLR,CLR,0.00,0.0,WeatherDisplay:10.37,2013-03-27 07:30:00,
2013-03-27 03:35:00,35.9,27.8,29.70,NNW,347,3.0,5.0,72,0.00,CLR,CLR,0.00,0.0,WeatherDisplay:10.37,2013-03-27 07:35:00,
2013-03-27 03:40:00,35.9,28.1,29.70,North,349,2.0,5.0,73,0.00,CLR,CLR,0.00,0.0,WeatherDisplay:10.37,2013-03-27 07:40:00,
2013-03-27 03:45:00,35.8,28.0,29.70,North,349,3.0,7.0,73,0.00,CLR,CLR,0.00,0.0,WeatherDisplay:10.37,2013-03-27 07:45:00,
2013-03-27 03:50:00,35.7,27.9,29.70,NNW,348,2.0,4.0,73,0.00,CLR,CLR,0.00,0.0,WeatherDisplay:10.37,2013-03-27 07:50:00,
2013-03-27 03:55:00,35.6,28.1,29.70,NNW,346,2.0,5.0,74,0.00,CLR,CLR,0.00,0.0,WeatherDisplay:10.37,2013-03-27 07:55:00,
2013-03-27 04:00:00,35.4,27.9,29.70,NNW,346,3.0,5.0,74,0.00,CLR,CLR,0.00,0.0,WeatherDisplay:10.37,2013-03-27 08:00:00,
2013-03-27 04:05:00,35.3,28.2,29.70,NNW,345,3.0,5.0,75,0.00,CLR,CLR,0.00,0.0,WeatherDisplay:10.37,2013-03-27 08:05:00,
2013-03-27 04:10:00,35.2,28.1,29.70,NNW,345,3.0,5.0,75,0.00,CLR,CLR,0.00,0.0,WeatherDisplay:10.37,2013-03-27 08:10:00,
2013-03-27 04:15:00,35.1,28.0,29.70,NNW,342,2.0,5.0,75,0.00,CLR,CLR,0.00,0.0,WeatherDisplay:10.37,2013-03-27 08:15:00,
2013-03-27 04:20:00,35.0,28.2,29.70,NNW,337,2.0,5.0,76,0.00,CLR,CLR,0.00,0.0,WeatherDisplay:10.37,2013-03-27 08:20:00,
2013-03-27 04:25:00,34.8,28.0,29.70,NNW,340,2.0,5.0,76,0.00,CLR,CLR,0.00,0.0,WeatherDisplay:10.37,2013-03-27 08:25:00,
2013-03-27 04:30:00,34.7,28.2,29.70,NNW,341,3.0,4.0,77,0.00,CLR,CLR,0.00,0.0,WeatherDisplay:10.37,2013-03-27 08:30:00,
2013-03-27 04:40:00,34.4,27.9,29.70,NNW,340,2.0,5.0,77,0.00,CLR,CLR,0.00,0.0,WeatherDisplay:10.37,2013-03-27 08:40:00,
2013-03-27 04:45:00,34.3,28.2,29.70,NNW,343,2.0,7.0,78,0.00,CLR,CLR,0.00,0.0,WeatherDisplay:10.37,2013-03-27 08:45:00,
2013-03-27 04:50:00,34.2,28.1,29.70,NNW,345,2.0,5.0,78,0.00,CLR,CLR,0.00,0.0,WeatherDisplay:10.37,2013-03-27 08:50:00,
2013-03-27 04:55:00,34.1,28.0,29.70,NNW,345,2.0,4.0,78,0.00,CLR,CLR,0.00,0.0,WeatherDisplay:10.37,2013-03-27 08:55:00,
2013-03-27 05:00:00,34.1,28.0,29.71,NNW,347,2.0,4.0,78,0.00,CLR,CLR,0.00,0.0,WeatherDisplay:10.37,2013-03-27 09:00:00,
2013-03-27 05:05:00,33.9,28.1,29.71,NNW,343,1.0,3.0,79,0.00,CLR,CLR,0.00,0.0,WeatherDisplay:10.37,2013-03-27 09:05:00,
2013-03-27 05:10:00,33.9,28.1,29.71,NNW,345,2.0,4.0,79,0.00,CLR,CLR,0.00,0.0,WeatherDisplay:10.37,2013-03-27 09:10:00,
2013-03-27 05:15:00,33.7,27.9,29.71,North,350,2.0,3.0,79,0.00,CLR,CLR,0.00,0.0,WeatherDisplay:10.37,2013-03-27 09:15:00,
2013-03-27 05:20:00,33.6,27.8,29.71,North,353,2.0,3.0,79,0.00,CLR,CLR,0.00,0.0,WeatherDisplay:10.37,2013-03-27 09:20:00,
2013-03-27 05:25:00,33.4,27.5,29.71,North,350,1.0,3.0,79,0.00,CLR,CLR,0.00,0.0,WeatherDisplay:10.37,2013-03-27 09:25:00,
2013-03-27 05:30:00,33.2,27.7,29.71,NNW,345,2.0,3.0,80,0.00,CLR,CLR,0.00,0.0,WeatherDisplay:10.37,2013-03-27 09:30:00,
2013-03-27 05:35:00,33.0,27.5,29.71,NNW,343,1.0,3.0,80,0.00,CLR,CLR,0.00,0.0,WeatherDisplay:10.37,2013-03-27 09:35:00,
2013-03-27 05:40:00,32.9,27.7,29.71,NNW,341,1.0,3.0,81,0.00,CLR,CLR,0.00,0.0,WeatherDisplay:10.37,2013-03-27 09:40:00,
2013-03-27 05:45:00,32.8,27.6,29.72,NNW,336,2.0,3.0,81,0.00,CLR,CLR,0.00,0.0,WeatherDisplay:10.37,2013-03-27 09:45:00,
2013-03-27 05:50:00,32.6,27.4,29.72,NNW,335,2.0,3.0,81,0.00,CLR,CLR,0.00,0.0,WeatherDisplay:10.37,2013-03-27 09:50:00,
2013-03-27 05:55:00,32.3,27.1,29.72,NNW,337,1.0,2.0,81,0.00,CLR,CLR,0.00,0.0,WeatherDisplay:10.37,2013-03-27 09:55:00,
2013-03-27 06:00:00,32.0,26.8,29.72,NNW,340,1.0,3.0,81,0.00,CLR,CLR,0.00,0.0,WeatherDisplay:10.37,2013-03-27 10:00:00,
2013-03-27 06:05:00,31.7,26.9,29.72,NNW,343,1.0,2.0,82,0.00,CLR,CLR,0.00,0.0,WeatherDisplay:10.37,2013-03-27 10:05:00,
2013-03-27 06:10:00,31.6,27.0,29.72,NNW,345,1.0,3.0,83,0.00,CLR,CLR,0.00,0.0,WeatherDisplay:10.37,2013-03-27 10:10:00,
2013-03-27 06:15:00,31.4,26.5,29.72,NNW,344,2.0,3.0,82,0.00,CLR,CLR,0.00,0.0,WeatherDisplay:10.37,2013-03-27 10:15:00,
2013-03-27 06:20:00,31.1,26.5,29.72,NNW,341,2.0,4.0,83,0.00,CLR,CLR,0.00,0.0,WeatherDisplay:10.37,2013-03-27 10:20:00,
2013-03-27 06:25:00,30.8,26.3,29.72,NNW,340,2.0,3.0,83,0.00,CLR,CLR,0.00,0.0,WeatherDisplay:10.37,2013-03-27 10:25:00,
2013-03-27 06:30:00,30.6,26.4,29.72,NNW,343,1.0,3.0,84,0.00,CLR,CLR,0.00,0.0,WeatherDisplay:10.37,2013-03-27 10:30:00,
2013-03-27 06:35:00,30.6,26.6,29.72,NNW,343,1.0,2.0,85,0.00,CLR,CLR,0.00,0.0,WeatherDisplay:10.37,2013-03-27 10:35:00,
2013-03-27 06:40:00,30.6,26.6,29.72,NNW,343,0.0,2.0,85,0.00,CLR,CLR,0.00,5.0,WeatherDisplay:10.37,2013-03-27 10:40:00,
2013-03-27 06:45:00,30.6,26.6,29.72,NNW,342,0.0,2.0,85,0.00,CLR,CLR,0.00,7.0,WeatherDisplay:10.37,2013-03-27 10:45:00,
2013-03-27 06:50:00,30.5,26.8,29.72,NNW,342,0.0,1.0,86,0.00,CLR,CLR,0.00,9.0,WeatherDisplay:10.37,2013-03-27 10:50:00,
2013-03-27 06:55:00,30.4,26.7,29.72,NNW,342,1.0,2.0,86,0.00,CLR,CLR,0.00,11.0,WeatherDisplay:10.37,2013-03-27 10:55:00,
2013-03-27 07:00:00,30.3,26.6,29.73,NNW,342,1.0,2.0,86,0.00,CLR,CLR,0.00,12.0,WeatherDisplay:10.37,2013-03-27 11:00:00,
2013-03-27 07:05:00,30.3,26.9,29.73,NNW,342,1.0,3.0,87,0.00,CLR,CLR,0.00,14.0,WeatherDisplay:10.37,2013-03-27 11:05:00,
2013-03-27 07:10:00,30.3,26.9,29.73,NNW,342,1.0,2.0,87,0.00,CLR,CLR,0.00,16.0,WeatherDisplay:10.37,2013-03-27 11:10:00,
2013-03-27 07:20:00,30.6,27.4,29.73,NNW,340,2.0,3.0,88,0.00,CLR,CLR,0.00,33.0,WeatherDisplay:10.37,2013-03-27 11:20:00,
2013-03-27 07:25:00,31.2,28.0,29.73,NNW,333,1.0,3.0,88,0.00,CLR,CLR,0.00,33.0,WeatherDisplay:10.37,2013-03-27 11:25:00,
2013-03-27 07:30:00,32.0,28.8,29.73,NW,318,2.0,5.0,88,0.00,CLR,CLR,0.00,30.0,WeatherDisplay:10.37,2013-03-27 11:30:00,
2013-03-27 07:40:00,33.3,29.3,29.73,NW,314,3.0,4.0,85,0.00,CLR,CLR,0.00,37.0,WeatherDisplay:10.37,2013-03-27 11:40:00,
2013-03-27 07:45:00,33.8,29.4,29.74,NW,322,2.0,3.0,84,0.00,CLR,CLR,0.00,35.0,WeatherDisplay:10.37,2013-03-27 11:45:00,
2013-03-27 07:50:00,34.3,29.6,29.74,NW,320,5.0,6.0,83,0.00,CLR,CLR,0.00,28.0,WeatherDisplay:10.37,2013-03-27 11:50:00,
2013-03-27 07:55:00,34.9,29.9,29.74,NNW,330,3.0,6.0,82,0.00,CLR,CLR,0.00,28.0,WeatherDisplay:10.37,2013-03-27 11:55:00,
2013-03-27 08:00:00,35.5,30.3,29.74,NNW,334,5.0,7.0,81,0.00,CLR,CLR,0.00,26.0,WeatherDisplay:10.37,2013-03-27 12:00:00,
2013-03-27 08:05:00,36.3,30.4,29.74,NNW,340,3.0,9.0,79,0.00,CLR,CLR,0.00,30.0,WeatherDisplay:10.37,2013-03-27 12:05:00,
2013-03-27 08:10:00,36.8,30.3,29.74,NNW,346,2.0,6.0,77,0.00,CLR,CLR,0.00,30.0,WeatherDisplay:10.37,2013-03-27 12:10:00,
2013-03-27 08:15:00,37.3,30.4,29.74,NNW,338,2.0,6.0,76,0.00,CLR,CLR,0.00,62.0,WeatherDisplay:10.37,2013-03-27 12:15:00,
2013-03-27 08:20:00,37.9,30.3,29.75,NNW,345,3.0,6.0,74,0.00,CLR,CLR,0.00,146.0,WeatherDisplay:10.37,2013-03-27 12:20:00,
2013-03-27 08:25:00,38.5,29.9,29.75,NNW,328,6.0,9.0,71,0.00,CLR,CLR,0.00,151.0,WeatherDisplay:10.37,2013-03-27 12:25:00,
2013-03-27 08:30:00,39.0,29.7,29.75,NNW,330,5.0,9.0,69,0.00,CLR,CLR,0.00,134.0,WeatherDisplay:10.37,2013-03-27 12:30:00,
2013-03-27 08:35:00,39.5,30.1,29.74,NNW,340,5.0,10.0,69,0.00,CLR,CLR,0.00,214.0,WeatherDisplay:10.37,2013-03-27 12:35:00,
2013-03-27 08:40:00,40.1,30.0,29.74,NW,324,5.0,8.0,67,0.00,CLR,CLR,0.00,367.0,WeatherDisplay:10.37,2013-03-27 12:40:00,
2013-03-27 08:45:00,40.6,29.3,29.75,NNW,329,6.0,13.0,64,0.00,CLR,CLR,0.00,380.0,WeatherDisplay:10.37,2013-03-27 12:45:00,
2013-03-27 08:55:00,41.6,29.5,29.75,NNW,336,3.0,8.0,62,0.00,CLR,CLR,0.00,411.0,WeatherDisplay:10.37,2013-03-27 12:55:00,
2013-03-27 09:05:00,42.3,29.0,29.75,NNW,334,6.0,16.0,59,0.00,CLR,CLR,0.00,441.0,WeatherDisplay:10.37,2013-03-27 13:05:00,
2013-03-27 09:10:00,42.6,29.3,29.75,NW,325,6.0,13.0,59,0.00,CLR,CLR,0.00,457.0,WeatherDisplay:10.37,2013-03-27 13:10:00,
2013-03-27 09:15:00,43.0,28.8,29.75,NNW,328,8.0,13.0,57,0.00,CLR,CLR,0.00,471.0,WeatherDisplay:10.37,2013-03-27 13:15:00,
2013-03-27 09:20:00,43.4,28.7,29.75,NNW,346,7.0,12.0,56,0.00,CLR,CLR,0.00,487.0,WeatherDisplay:10.37,2013-03-27 13:20:00,
2013-03-27 09:25:00,43.7,28.1,29.75,North,353,6.0,14.0,54,0.00,CLR,CLR,0.00,475.0,WeatherDisplay:10.37,2013-03-27 13:25:00,
2013-03-27 09:30:00,43.8,28.2,29.75,North,353,5.0,12.0,54,0.00,CLR,CLR,0.00,341.0,WeatherDisplay:10.37,2013-03-27 13:30:00,
2013-03-27 09:35:00,44.0,28.0,29.75,NNW,339,8.0,12.0,53,0.00,CLR,CLR,0.00,529.0,WeatherDisplay:10.37,2013-03-27 13:35:00,
2013-03-27 09:40:00,44.0,28.5,29.75,NNW,335,8.0,13.0,54,0.00,CLR,CLR,0.00,543.0,WeatherDisplay:10.37,2013-03-27 13:40:00,
2013-03-27 09:45:00,44.2,27.7,29.75,NNW,333,8.0,13.0,52,0.00,CLR,CLR,0.00,555.0,WeatherDisplay:10.37,2013-03-27 13:45:00,
2013-03-27 09:55:00,44.5,28.0,29.75,NNW,340,6.0,16.0,52,0.00,CLR,CLR,0.00,580.0,WeatherDisplay:10.37,2013-03-27 13:55:00,
2013-03-27 10:00:00,44.9,28.3,29.74,NNW,342,8.0,15.0,52,0.00,CLR,CLR,0.00,594.0,WeatherDisplay:10.37,2013-03-27 14:00:00,
2013-03-27 10:05:00,45.0,27.9,29.74,NNW,343,10.0,16.0,51,0.00,CLR,CLR,0.00,608.0,WeatherDisplay:10.37,2013-03-27 14:05:00,
2013-03-27 10:10:00,45.0,27.5,29.74,NNW,339,10.0,18.0,50,0.00,CLR,CLR,0.00,617.0,WeatherDisplay:10.37,2013-03-27 14:10:00,
2013-03-27 10:15:00,45.2,28.2,29.74,NNW,347,8.0,14.0,51,0.00,CLR,CLR,0.00,631.0,WeatherDisplay:10.37,2013-03-27 14:15:00,
2013-03-27 10:20:00,45.9,28.3,29.74,North,354,7.0,13.0,50,0.00,CLR,CLR,0.00,642.0,WeatherDisplay:10.37,2013-03-27 14:20:00,
2013-03-27 10:25:00,46.2,28.5,29.74,North,354,7.0,13.0,50,0.00,CLR,CLR,0.00,650.0,WeatherDisplay:10.37,2013-03-27 14:25:00,
2013-03-27 10:30:00,46.3,28.2,29.74,NNW,343,9.0,16.0,49,0.00,CLR,CLR,0.00,661.0,WeatherDisplay:10.37,2013-03-27 14:30:00,
2013-03-27 10:35:00,46.2,28.1,29.73,NNW,332,6.0,14.0,49,0.00,CLR,CLR,0.00,673.0,WeatherDisplay:10.37,2013-03-27 14:35:00,
2013-03-27 10:40:00,46.4,28.8,29.73,NNW,344,7.0,14.0,50,0.00,CLR,CLR,0.00,684.0,WeatherDisplay:10.37,2013-03-27 14:40:00,
2013-03-27 10:45:00,47.0,28.3,29.73,North,356,6.0,14.0,48,0.00,CLR,CLR,0.00,693.0,WeatherDisplay:10.37,2013-03-27 14:45:00,
2013-03-27 10:50:00,46.8,28.1,29.73,NNW,342,8.0,15.0,48,0.00,CLR,CLR,0.00,703.0,WeatherDisplay:10.37,2013-03-27 14:50:00,
2013-03-27 10:55:00,47.2,29.0,29.73,North,350,8.0,18.0,49,0.00,CLR,CLR,0.00,712.0,WeatherDisplay:10.37,2013-03-27 14:55:00,
2013-03-27 11:00:00,47.8,29.0,29.73,North,349,8.0,14.0,48,0.00,CLR,CLR,0.00,717.0,WeatherDisplay:10.37,2013-03-27 15:00:00,
2013-03-27 11:05:00,47.8,28.6,29.73,NNW,340,9.0,16.0,47,0.00,CLR,CLR,0.00,729.0,WeatherDisplay:10.37,2013-03-27 15:05:00,
2013-03-27 11:10:00,47.9,28.6,29.73,North,349,7.0,18.0,47,0.00,CLR,CLR,0.00,737.0,WeatherDisplay:10.37,2013-03-27 15:10:00,
2013-03-27 11:15:00,48.0,28.2,29.73,North,1,10.0,16.0,46,0.00,CLR,CLR,0.00,745.0,WeatherDisplay:10.37,2013-03-27 15:15:00,
2013-03-27 11:20:00,48.1,28.8,29.73,North,9,9.0,20.0,47,0.00,CLR,CLR,0.00,752.0,WeatherDisplay:10.37,2013-03-27 15:20:00,
2013-03-27 11:25:00,48.2,28.4,29.73,North,354,10.0,20.0,46,0.00,CLR,CLR,0.00,761.0,WeatherDisplay:10.37,2013-03-27 15:25:00,
2013-03-27 11:30:00,47.8,28.0,29.73,North,349,10.0,22.0,46,0.00,CLR,CLR,0.00,768.0,WeatherDisplay:10.37,2013-03-27 15:30:00,
2013-03-27 11:35:00,48.1,28.8,29.73,North,350,6.0,16.0,47,0.00,CLR,CLR,0.00,772.0,WeatherDisplay:10.37,2013-03-27 15:35:00,
2013-03-27 11:40:00,48.6,28.2,29.73,NNW,344,9.0,16.0,45,0.00,CLR,CLR,0.00,779.0,WeatherDisplay:10.37,2013-03-27 15:40:00,
2013-03-27 11:45:00,48.5,28.1,29.73,NNW,342,9.0,16.0,45,0.00,CLR,CLR,0.00,782.0,WeatherDisplay:10.37,2013-03-27 15:45:00,
2013-03-27 11:50:00,48.8,28.4,29.73,NNW,343,8.0,16.0,45,0.00,CLR,CLR,0.00,788.0,WeatherDisplay:10.37,2013-03-27 15:50:00,
2013-03-27 11:55:00,49.3,28.3,29.73,North,353,10.0,17.0,44,0.00,CLR,CLR,0.00,793.0,WeatherDisplay:10.37,2013-03-27 15:55:00,
2013-03-27 12:00:00,49.2,28.2,29.73,North,354,10.0,20.0,44,0.00,CLR,CLR,0.00,798.0,WeatherDisplay:10.37,2013-03-27 16:00:00,
2013-03-27 12:05:00,49.6,29.1,29.72,NNW,341,10.0,17.0,45,0.00,CLR,CLR,0.00,803.0,WeatherDisplay:10.37,2013-03-27 16:05:00,
2013-03-27 12:10:00,49.9,28.8,29.72,North,350,8.0,18.0,44,0.00,CLR,CLR,0.00,805.0,WeatherDisplay:10.37,2013-03-27 16:10:00,
2013-03-27 12:15:00,50.1,29.0,29.72,North,359,8.0,18.0,44,0.00,CLR,CLR,0.00,809.0,WeatherDisplay:10.37,2013-03-27 16:15:00,
2013-03-27 12:20:00,50.5,29.4,29.72,North,3,6.0,16.0,44,0.00,CLR,CLR,0.00,810.0,WeatherDisplay:10.37,2013-03-27 16:20:00,
2013-03-27 12:25:00,51.0,29.3,29.72,NNE,12,10.0,17.0,43,0.00,CLR,CLR,0.00,812.0,WeatherDisplay:10.37,2013-03-27 16:25:00,
2013-03-27 12:30:00,51.0,28.7,29.72,North,355,6.0,13.0,42,0.00,CLR,CLR,0.00,810.0,WeatherDisplay:10.37,2013-03-27 16:30:00,
2013-03-27 12:40:00,51.1,28.8,29.72,NNW,342,8.0,14.0,42,0.00,CLR,CLR,0.00,814.0,WeatherDisplay:10.37,2013-03-27 16:40:00,
2013-03-27 12:50:00,52.2,29.8,29.72,North,357,6.0,14.0,42,0.00,CLR,CLR,0.00,816.0,WeatherDisplay:10.37,2013-03-27 16:50:00,
2013-03-27 12:55:00,52.8,29.1,29.72,North,358,7.0,12.0,40,0.00,CLR,CLR,0.00,814.0,WeatherDisplay:10.37,2013-03-27 16:55:00,
2013-03-27 13:00:00,53.0,29.3,29.72,North,5,6.0,14.0,40,0.00,CLR,CLR,0.00,816.0,WeatherDisplay:10.37,2013-03-27 17:00:00,
2013-03-27 13:05:00,53.1,28.1,29.72,North,2,8.0,14.0,38,0.00,CLR,CLR,0.00,828.0,WeatherDisplay:10.37,2013-03-27 17:05:00,
2013-03-27 13:10:00,52.8,29.2,29.72,North,355,5.0,12.0,40,0.00,CLR,CLR,0.00,963.0,WeatherDisplay:10.37,2013-03-27 17:10:00,
2013-03-27 13:15:00,53.0,28.7,29.72,North,352,7.0,13.0,39,0.00,CLR,CLR,0.00,279.0,WeatherDisplay:10.37,2013-03-27 17:15:00,
2013-03-27 13:20:00,52.4,27.5,29.72,NNW,347,8.0,14.0,38,0.00,CLR,CLR,0.00,195.0,WeatherDisplay:10.37,2013-03-27 17:20:00,
2013-03-27 13:25:00,52.2,28.6,29.72,North,349,7.0,10.0,40,0.00,CLR,CLR,0.00,835.0,WeatherDisplay:10.37,2013-03-27 17:25:00,
2013-03-27 13:30:00,52.9,28.6,29.71,North,355,6.0,12.0,39,0.00,CLR,CLR,0.00,849.0,WeatherDisplay:10.37,2013-03-27 17:30:00,
2013-03-27 13:35:00,53.6,29.8,29.71,North,350,3.0,10.0,40,0.00,CLR,CLR,0.00,816.0,WeatherDisplay:10.37,2013-03-27 17:35:00,
2013-03-27 13:40:00,53.8,28.8,29.71,NNW,331,3.0,10.0,38,0.00,CLR,CLR,0.00,789.0,WeatherDisplay:10.37,2013-03-27 17:40:00,
2013-03-27 13:45:00,54.0,28.3,29.71,NNW,333,6.0,15.0,37,0.00,CLR,CLR,0.00,791.0,WeatherDisplay:10.37,2013-03-27 17:45:00,
2013-03-27 13:50:00,53.6,27.9,29.70,NNW,338,6.0,14.0,37,0.00,CLR,CLR,0.00,786.0,WeatherDisplay:10.37,2013-03-27 17:50:00,
2013-03-27 13:55:00,53.9,28.2,29.70,NW,325,3.0,12.0,37,0.00,CLR,CLR,0.00,779.0,WeatherDisplay:10.37,2013-03-27 17:55:00,
2013-03-27 14:00:00,54.4,27.3,29.70,NNW,344,8.0,16.0,35,0.00,CLR,CLR,0.00,773.0,WeatherDisplay:10.37,2013-03-27 18:00:00,
2013-03-27 14:05:00,54.6,28.2,29.70,North,358,5.0,10.0,36,0.00,CLR,CLR,0.00,765.0,WeatherDisplay:10.37,2013-03-27 18:05:00,
2013-03-27 14:10:00,54.7,28.3,29.70,North,8,8.0,15.0,36,0.00,CLR,CLR,0.00,807.0,WeatherDisplay:10.37,2013-03-27 18:10:00,
2013-03-27 14:15:00,54.9,28.5,29.70,North,8,6.0,10.0,36,0.00,CLR,CLR,0.00,777.0,WeatherDisplay:10.37,2013-03-27 18:15:00,
2013-03-27 14:20:00,55.4,28.2,29.70,North,11,7.0,13.0,35,0.00,CLR,CLR,0.00,765.0,WeatherDisplay:10.37,2013-03-27 18:20:00,
2013-03-27 14:25:00,55.2,27.3,29.70,North,7,9.0,15.0,34,0.00,CLR,CLR,0.00,756.0,WeatherDisplay:10.37,2013-03-27 18:25:00,
2013-03-27 14:30:00,54.7,27.5,29.70,North,4,3.0,9.0,35,0.00,CLR,CLR,0.00,856.0,WeatherDisplay:10.37,2013-03-27 18:30:00,
2013-03-27 14:35:00,54.8,27.7,29.70,North,7,5.0,13.0,35,0.00,CLR,CLR,0.00,826.0,WeatherDisplay:10.37,2013-03-27 18:35:00,
2013-03-27 14:40:00,55.1,27.9,29.70,NNE,13,5.0,13.0,35,0.00,CLR,CLR,0.00,788.0,WeatherDisplay:10.37,2013-03-27 18:40:00,
2013-03-27 14:45:00,55.5,27.6,29.70,North,9,5.0,10.0,34,0.00,CLR,CLR,0.00,784.0,WeatherDisplay:10.37,2013-03-27 18:45:00,
2013-03-27 14:50:00,55.4,27.5,29.70,North,8,5.0,10.0,34,0.00,CLR,CLR,0.00,473.0,WeatherDisplay:10.37,2013-03-27 18:50:00,
2013-03-27 14:55:00,55.3,27.4,29.70,North,360,7.0,13.0,34,0.00,CLR,CLR,0.00,399.0,WeatherDisplay:10.37,2013-03-27 18:55:00,
2013-03-27 15:00:00,55.3,27.4,29.70,North,360,6.0,12.0,34,0.00,CLR,CLR,0.00,265.0,WeatherDisplay:10.37,2013-03-27 19:00:00,
2013-03-27 15:10:00,53.8,27.4,29.70,NNE,14,5.0,12.0,36,0.00,CLR,CLR,0.00,684.0,WeatherDisplay:10.37,2013-03-27 19:10:00,
2013-03-27 15:15:00,53.9,26.1,29.70,NNE,18,6.0,9.0,34,0.00,CLR,CLR,0.00,708.0,WeatherDisplay:10.37,2013-03-27 19:15:00,
2013-03-27 15:20:00,54.2,27.8,29.69,NNE,13,3.0,7.0,36,0.00,CLR,CLR,0.00,276.0,WeatherDisplay:10.37,2013-03-27 19:20:00,
2013-03-27 15:25:00,54.1,27.0,29.69,North,10,6.0,10.0,35,0.00,CLR,CLR,0.00,318.0,WeatherDisplay:10.37,2013-03-27 19:25:00,
2013-03-27 15:30:00,53.9,26.8,29.69,North,8,3.0,6.0,35,0.00,CLR,CLR,0.00,360.0,WeatherDisplay:10.37,2013-03-27 19:30:00,
2013-03-27 15:35:00,53.8,27.4,29.69,North,355,3.0,10.0,36,0.00,CLR,CLR,0.00,360.0,WeatherDisplay:10.37,2013-03-27 19:35:00,
2013-03-27 15:40:00,53.9,27.5,29.69,North,356,8.0,12.0,36,0.00,CLR,CLR,0.00,654.0,WeatherDisplay:10.37,2013-03-27 19:40:00,
2013-03-27 15:45:00,54.3,27.2,29.69,NNW,348,6.0,12.0,35,0.00,CLR,CLR,0.00,624.0,WeatherDisplay:10.37,2013-03-27 19:45:00,
2013-03-27 15:50:00,55.0,27.1,29.69,NNW,340,2.0,9.0,34,0.00,CLR,CLR,0.00,612.0,WeatherDisplay:10.37,2013-03-27 19:50:00,
2013-03-27 15:55:00,54.9,27.7,29.69,NNW,347,5.0,12.0,35,0.00,CLR,CLR,0.00,281.0,WeatherDisplay:10.37,2013-03-27 19:55:00,
2013-03-27 16:00:00,54.7,27.6,29.69,North,353,3.0,12.0,35,0.00,CLR,CLR,0.00,719.0,WeatherDisplay:10.37,2013-03-27 20:00:00,
2013-03-27 16:10:00,55.0,27.8,29.69,North,2,6.0,12.0,35,0.00,SCT,SCT,0.00,294.0,WeatherDisplay:10.37,2013-03-27 20:10:00,
2013-03-27 16:15:00,54.9,27.7,29.69,North,3,5.0,7.0,35,0.00,SCT,SCT,0.00,206.0,WeatherDisplay:10.37,2013-03-27 20:15:00,
2013-03-27 16:20:00,54.3,27.2,29.69,North,351,3.0,8.0,35,0.00,SCT,SCT,0.00,206.0,WeatherDisplay:10.37,2013-03-27 20:20:00,
2013-03-27 16:25:00,54.1,27.7,29.69,North,355,3.0,7.0,36,0.00,SCT,SCT,0.00,169.0,WeatherDisplay:10.37,2013-03-27 20:25:00,
2013-03-27 16:30:00,53.9,28.2,29.69,North,3,3.0,6.0,37,0.00,SCT,SCT,0.00,123.0,WeatherDisplay:10.37,2013-03-27 20:30:00,
2013-03-27 16:35:00,53.7,27.4,29.69,NNW,339,3.0,5.0,36,0.00,SCT,SCT,0.00,348.0,WeatherDisplay:10.37,2013-03-27 20:35:00,
2013-03-27 16:40:00,53.4,27.1,29.69,NNW,336,5.0,7.0,36,0.00,SCT,SCT,0.00,434.0,WeatherDisplay:10.37,2013-03-27 20:40:00,
2013-03-27 16:45:00,53.6,27.2,29.69,NNW,343,5.0,9.0,36,0.00,SCT,SCT,0.00,434.0,WeatherDisplay:10.37,2013-03-27 20:45:00,
2013-03-27 16:50:00,54.0,27.6,29.69,NNW,345,3.0,6.0,36,0.00,SCT,SCT,0.00,132.0,WeatherDisplay:10.37,2013-03-27 20:50:00,
2013-03-27 16:55:00,53.9,26.2,29.69,NW,322,5.0,7.0,34,0.00,SCT,SCT,0.00,357.0,WeatherDisplay:10.37,2013-03-27 20:55:00,
2013-03-27 17:00:00,52.9,25.9,29.69,NW,323,5.0,9.0,35,0.00,SCT,SCT,0.00,121.0,WeatherDisplay:10.37,2013-03-27 21:00:00,
2013-03-27 17:05:00,53.2,26.9,29.69,NNW,340,3.0,7.0,36,0.00,CLR,CLR,0.00,339.0,WeatherDisplay:10.37,2013-03-27 21:05:00,
2013-03-27 17:10:00,53.9,26.8,29.69,NNW,341,5.0,7.0,35,0.00,CLR,CLR,0.00,243.0,WeatherDisplay:10.37,2013-03-27 21:10:00,
2013-03-27 17:15:00,54.3,27.2,29.69,NNW,342,3.0,7.0,35,0.00,CLR,CLR,0.00,313.0,WeatherDisplay:10.37,2013-03-27 21:15:00,
2013-03-27 17:20:00,54.7,26.9,29.69,NNW,337,2.0,6.0,34,0.00,CLR,CLR,0.00,288.0,WeatherDisplay:10.37,2013-03-27 21:20:00,
2013-03-27 17:25:00,54.7,26.8,29.69,NNW,340,7.0,10.0,34,0.00,CLR,CLR,0.00,271.0,WeatherDisplay:10.37,2013-03-27 21:25:00,
2013-03-27 17:30:00,54.7,26.8,29.69,NNW,346,3.0,7.0,34,0.00,CLR,CLR,0.00,258.0,WeatherDisplay:10.37,2013-03-27 21:30:00,
2013-03-27 17:35:00,54.4,26.6,29.69,NNW,330,2.0,7.0,34,0.00,CLR,CLR,0.00,250.0,WeatherDisplay:10.37,2013-03-27 21:35:00,
2013-03-27 17:45:00,52.1,29.7,29.70,West,280,3.0,5.0,42,0.00,CLR,CLR,0.00,56.0,WeatherDisplay:10.37,2013-03-27 21:45:00,
2013-03-27 17:50:00,51.4,30.2,29.70,WNW,301,5.0,6.0,44,0.00,CLR,CLR,0.00,54.0,WeatherDisplay:10.37,2013-03-27 21:50:00,
2013-03-27 17:55:00,50.8,30.2,29.70,NW,306,1.0,5.0,45,0.00,CLR,CLR,0.00,65.0,WeatherDisplay:10.37,2013-03-27 21:55:00,
2013-03-27 18:00:00,50.2,30.2,29.70,WNW,294,2.0,3.0,46,0.00,CLR,CLR,0.00,56.0,WeatherDisplay:10.37,2013-03-27 22:00:00,
2013-03-27 18:05:00,49.8,30.3,29.70,WNW,293,0.0,3.0,47,0.00,OVC,OVC,0.00,56.0,WeatherDisplay:10.37,2013-03-27 22:05:00,
2013-03-27 18:10:00,49.6,30.7,29.70,WNW,291,2.0,4.0,48,0.00,OVC,OVC,0.00,47.0,WeatherDisplay:10.37,2013-03-27 22:10:00,
2013-03-27 18:15:00,49.5,31.1,29.70,WNW,288,1.0,3.0,49,0.00,OVC,OVC,0.00,47.0,WeatherDisplay:10.37,2013-03-27 22:15:00,
2013-03-27 18:20:00,49.4,31.5,29.70,WNW,289,1.0,3.0,50,0.00,OVC,OVC,0.00,39.0,WeatherDisplay:10.37,2013-03-27 22:20:00,
2013-03-27 18:30:00,48.7,31.4,29.71,WNW,293,1.0,3.0,51,0.00,OVC,OVC,0.00,25.0,WeatherDisplay:10.37,2013-03-27 22:30:00,
2013-03-27 18:35:00,48.5,31.7,29.71,West,274,3.0,5.0,52,0.00,OVC,OVC,0.00,21.0,WeatherDisplay:10.37,2013-03-27 22:35:00,
2013-03-27 18:40:00,48.2,31.4,29.71,West,271,1.0,4.0,52,0.00,OVC,OVC,0.00,9.0,WeatherDisplay:10.37,2013-03-27 22:40:00,
2013-03-27 18:45:00,48.1,31.8,29.71,WNW,286,1.0,4.0,53,0.00,OVC,OVC,0.00,5.0,WeatherDisplay:10.37,2013-03-27 22:45:00,
2013-03-27 18:50:00,48.0,31.7,29.71,WNW,302,2.0,4.0,53,0.00,OVC,OVC,0.00,0.0,WeatherDisplay:10.37,2013-03-27 22:50:00,
2013-03-27 18:55:00,47.8,31.5,29.71,WNW,303,1.0,3.0,53,0.00,OVC,OVC,0.00,0.0,WeatherDisplay:10.37,2013-03-27 22:55:00,
2013-03-27 19:00:00,47.6,31.3,29.72,WNW,303,1.0,3.0,53,0.00,OVC,OVC,0.00,0.0,WeatherDisplay:10.37,2013-03-27 23:00:00,
2013-03-27 19:05:00,47.5,31.6,29.72,WNW,302,1.0,2.0,54,0.00,OVC,OVC,0.00,0.0,WeatherDisplay:10.37,2013-03-27 23:05:00,
2013-03-27 19:10:00,47.3,31.0,29.72,WNW,299,2.0,5.0,53,0.00,OVC,OVC,0.00,0.0,WeatherDisplay:10.37,2013-03-27 23:10:00,
2013-03-27 19:15:00,47.1,29.4,29.72,NW,308,1.0,4.0,50,0.00,OVC,OVC,0.00,0.0,WeatherDisplay:10.37,2013-03-27 23:15:00,
2013-03-27 19:20:00,47.1,28.4,29.72,NNW,331,1.0,4.0,48,0.00,OVC,OVC,0.00,0.0,WeatherDisplay:10.37,2013-03-27 23:20:00,
2013-03-27 19:25:00,47.1,28.4,29.72,NNW,347,2.0,4.0,48,0.00,OVC,OVC,0.00,0.0,WeatherDisplay:10.37,2013-03-27 23:25:00,
2013-03-27 19:30:00,47.1,27.4,29.72,NNW,339,5.0,12.0,46,0.00,OVC,OVC,0.00,0.0,WeatherDisplay:10.37,2013-03-27 23:30:00,
2013-03-27 19:35:00,47.2,27.5,29.73,NNW,347,5.0,9.0,46,0.00,OVC,OVC,0.00,0.0,WeatherDisplay:10.37,2013-03-27 23:35:00,
2013-03-27 19:40:00,47.2,27.5,29.73,North,2,5.0,12.0,46,0.00,OVC,OVC,0.00,0.0,WeatherDisplay:10.37,2013-03-27 23:40:00,
2013-03-27 19:45:00,47.0,27.3,29.73,NNE,13,2.0,12.0,46,0.00,OVC,OVC,0.00,0.0,WeatherDisplay:10.37,2013-03-27 23:45:00,
2013-03-27 19:50:00,46.7,28.6,29.73,NNE,23,6.0,12.0,49,0.00,OVC,OVC,0.00,0.0,WeatherDisplay:10.37,2013-03-27 23:50:00,
2013-03-27 20:00:00,45.5,31.2,29.74,NNE,28,3.0,14.0,57,0.00,OVC,OVC,0.00,0.0,WeatherDisplay:10.37,2013-03-28 00:00:00,
2013-03-27 20:05:00,44.9,31.8,29.75,NNE,33,3.0,7.0,60,0.00,BKN,BKN,0.00,0.0,WeatherDisplay:10.37,2013-03-28 00:05:00,
2013-03-27 20:10:00,44.4,32.5,29.75,NE,41,2.0,10.0,63,0.00,BKN,BKN,0.00,0.0,WeatherDisplay:10.37,2013-03-28 00:10:00,
2013-03-27 20:15:00,43.9,32.5,29.75,NE,50,3.0,6.0,64,0.00,BKN,BKN,0.00,0.0,WeatherDisplay:10.37,2013-03-28 00:15:00,
2013-03-27 20:20:00,43.6,33.0,29.75,NE,46,2.0,7.0,66,0.00,BKN,BKN,0.00,0.0,WeatherDisplay:10.37,2013-03-28 00:20:00,
2013-03-27 20:25:00,43.3,33.1,29.75,NE,44,5.0,12.0,67,0.00,BKN,BKN,0.00,0.0,WeatherDisplay:10.37,2013-03-28 00:25:00,
2013-03-27 20:30:00,43.0,33.5,29.75,NE,45,3.0,8.0,69,0.00,BKN,BKN,0.00,0.0,WeatherDisplay:10.37,2013-03-28 00:30:00,
2013-03-27 20:35:00,42.8,33.7,29.76,NE,51,2.0,6.0,70,0.00,BKN,BKN,0.00,0.0,WeatherDisplay:10.37,2013-03-28 00:35:00,
2013-03-27 20:40:00,42.6,33.9,29.76,NE,44,2.0,5.0,71,0.00,BKN,BKN,0.00,0.0,WeatherDisplay:10.37,2013-03-28 00:40:00,
2013-03-27 20:45:00,42.4,34.0,29.76,NE,42,1.0,3.0,72,0.00,BKN,BKN,0.00,0.0,WeatherDisplay:10.37,2013-03-28 00:45:00,
2013-03-27 20:50:00,42.2,34.2,29.76,NE,40,2.0,4.0,73,0.00,BKN,BKN,0.00,0.0,WeatherDisplay:10.37,2013-03-28 00:50:00,
2013-03-27 20:55:00,42.1,34.4,29.76,NE,38,2.0,7.0,74,0.00,BKN,BKN,0.00,0.0,WeatherDisplay:10.37,2013-03-28 00:55:00,
2013-03-27 21:00:00,41.9,34.3,29.76,NE,34,2.0,5.0,74,0.00,BKN,BKN,0.00,0.0,WeatherDisplay:10.37,2013-03-28 01:00:00,
2013-03-27 21:05:00,41.9,34.6,29.77,NNE,23,3.0,6.0,75,0.00,CLR,CLR,0.00,0.0,WeatherDisplay:10.37,2013-03-28 01:05:00,
2013-03-27 21:10:00,41.8,34.5,29.77,NNE,28,2.0,9.0,75,0.00,CLR,CLR,0.00,0.0,WeatherDisplay:10.37,2013-03-28 01:10:00,
2013-03-27 21:15:00,41.8,34.8,29.77,NNE,27,2.0,6.0,76,0.00,CLR,CLR,0.00,0.0,WeatherDisplay:10.37,2013-03-28 01:15:00,
2013-03-27 21:20:00,41.8,34.8,29.77,NNE,27,2.0,4.0,76,0.00,CLR,CLR,0.00,0.0,WeatherDisplay:10.37,2013-03-28 01:20:00,
2013-03-27 21:25:00,41.7,35.0,29.77,NE,42,2.0,4.0,77,0.00,CLR,CLR,0.00,0.0,WeatherDisplay:10.37,2013-03-28 01:25:00,
2013-03-27 21:30:00,41.6,34.9,29.78,NE,36,1.0,5.0,77,0.00,CLR,CLR,0.00,0.0,WeatherDisplay:10.37,2013-03-28 01:30:00,
2013-03-27 21:35:00,41.6,35.2,29.78,NNE,25,3.0,7.0,78,0.00,CLR,CLR,0.00,0.0,WeatherDisplay:10.37,2013-03-28 01:35:00,
2013-03-27 21:40:00,41.5,35.2,29.78,NNE,16,3.0,7.0,78,0.00,CLR,CLR,0.00,0.0,WeatherDisplay:10.37,2013-03-28 01:40:00,
2013-03-27 21:45:00,41.5,35.5,29.78,North,8,2.0,6.0,79,0.00,CLR,CLR,0.00,0.0,WeatherDisplay:10.37,2013-03-28 01:45:00,
2013-03-27 21:50:00,41.5,35.5,29.78,NNE,12,2.0,9.0,79,0.00,CLR,CLR,0.00,0.0,WeatherDisplay:10.37,2013-03-28 01:50:00,
2013-03-27 21:55:00,41.5,35.8,29.78,NNE,27,2.0,5.0,80,0.00,CLR,CLR,0.00,0.0,WeatherDisplay:10.37,2013-03-28 01:55:00,
2013-03-27 22:00:00,41.5,35.8,29.78,NNE,20,3.0,7.0,80,0.00,CLR,CLR,0.00,0.0,WeatherDisplay:10.37,2013-03-28 02:00:00,
2013-03-27 22:05:00,41.5,35.8,29.78,NNE,17,5.0,9.0,80,0.00,BKN,BKN,0.00,0.0,WeatherDisplay:10.37,2013-03-28 02:05:00,
2013-03-27 22:10:00,41.6,35.9,29.78,NNE,16,3.0,10.0,80,0.00,BKN,BKN,0.00,0.0,WeatherDisplay:10.37,2013-03-28 02:10:00,
2013-03-27 22:15:00,41.6,35.9,29.78,NNE,17,5.0,7.0,80,0.00,BKN,BKN,0.00,0.0,WeatherDisplay:10.37,2013-03-28 02:15:00,
2013-03-27 22:20:00,41.6,35.9,29.78,NNE,23,2.0,6.0,80,0.00,BKN,BKN,0.00,0.0,WeatherDisplay:10.37,2013-03-28 02:20:00,
2013-03-27 22:25:00,41.6,35.9,29.78,NNE,16,2.0,6.0,80,0.00,BKN,BKN,0.00,0.0,WeatherDisplay:10.37,2013-03-28 02:25:00,
2013-03-27 22:30:00,41.5,36.1,29.78,North,5,3.0,7.0,81,0.00,BKN,BKN,0.00,0.0,WeatherDisplay:10.37,2013-03-28 02:30:00,
2013-03-27 22:35:00,41.5,36.1,29.78,North,1,3.0,6.0,81,0.00,BKN,BKN,0.00,0.0,WeatherDisplay:10.37,2013-03-28 02:35:00,
2013-03-27 22:40:00,41.4,36.0,29.78,North,6,6.0,9.0,81,0.00,BKN,BKN,0.00,0.0,WeatherDisplay:10.37,2013-03-28 02:40:00,
2013-03-27 22:45:00,41.4,36.3,29.78,North,9,2.0,5.0,82,0.00,BKN,BKN,0.00,0.0,WeatherDisplay:10.37,2013-03-28 02:45:00,
2013-03-27 22:50:00,41.4,36.3,29.78,North,3,5.0,7.0,82,0.00,BKN,BKN,0.00,0.0,WeatherDisplay:10.37,2013-03-28 02:50:00,
2013-03-27 22:55:00,41.4,36.6,29.78,North,2,5.0,9.0,83,0.00,BKN,BKN,0.00,0.0,WeatherDisplay:10.37,2013-03-28 02:55:00,
2013-03-27 23:00:00,41.3,36.5,29.78,NNE,12,5.0,10.0,83,0.00,BKN,BKN,0.00,0.0,WeatherDisplay:10.37,2013-03-28 03:00:00,
2013-03-27 23:05:00,41.3,36.8,29.78,NNE,17,6.0,10.0,84,0.00,OVC,OVC,0.00,0.0,WeatherDisplay:10.37,2013-03-28 03:05:00,
2013-03-27 23:10:00,41.3,36.8,29.78,North,9,5.0,9.0,84,0.00,OVC,OVC,0.00,0.0,WeatherDisplay:10.37,2013-03-28 03:10:00,
2013-03-27 23:15:00,41.3,37.1,29.78,North,355,8.0,14.0,85,0.00,OVC,OVC,0.00,0.0,WeatherDisplay:10.37,2013-03-28 03:15:00,
2013-03-27 23:20:00,41.3,37.4,29.78,North,2,7.0,14.0,86,0.00,OVC,OVC,0.00,0.0,WeatherDisplay:10.37,2013-03-28 03:20:00,
2013-03-27 23:25:00,41.2,37.6,29.78,North,6,6.0,10.0,87,0.00,OVC,OVC,0.00,0.0,WeatherDisplay:10.37,2013-03-28 03:25:00,
2013-03-27 23:30:00,41.1,37.5,29.78,NNE,14,3.0,9.0,87,0.00,OVC,OVC,0.00,0.0,WeatherDisplay:10.37,2013-03-28 03:30:00,
2013-03-27 23:35:00,41.0,37.4,29.78,NNE,14,8.0,13.0,87,0.00,OVC,OVC,0.00,0.0,WeatherDisplay:10.37,2013-03-28 03:35:00,
2013-03-27 23:40:00,40.9,37.6,29.78,North,358,5.0,12.0,88,0.00,OVC,OVC,0.00,0.0,WeatherDisplay:10.37,2013-03-28 03:40:00,
2013-03-27 23:45:00,40.8,37.5,29.78,North,357,3.0,12.0,88,0.00,OVC,OVC,0.00,0.0,WeatherDisplay:10.37,2013-03-28 03:45:00,
2013-03-27 23:50:00,40.6,37.4,29.78,North,1,7.0,12.0,88,0.00,OVC,OVC,0.00,0.0,WeatherDisplay:10.37,2013-03-28 03:50:00,
2013-03-27 23:55:00,40.6,37.6,29.78,North,355,5.0,10.0,89,0.00,OVC,OVC,0.00,0.0,WeatherDisplay:10.37,2013-03-28 03:55:00,